Volver al catálogo

COSMOS 2589

ActivoNavegaciónGEO
NORAD 64467·PAYLOAD·🇷🇺 Russia

Lanzado Jun 19, 2025 desde Plesetsk Cosmodrome

Loading…

TLE

ActualizadoSource: Space-Track

Época: Sep 14, 2026, 18:09 UTC

1 64467U 25131A   26257.75633946 -.00000370  00000-0  00000+0 0  9994
2 64467   0.1608  90.8122 0000926 290.3891   2.3123  1.00357418  4458

Sigue COSMOS 2589 en tiempo real con AllMySat

Download on the App Store